This is the latest recevied weather packets stored in our database for station/object K1LVA. If no packets are shown the sender has not sent any weather packets the latest 10 day(s).
| Time | Temp. | Humidity | Pressure | Rain* | Wind** | Luminosity | Snow |
|---|---|---|---|---|---|---|---|
| 1777753873 | 12.22° C | 99% | 1012.3 hPa | 0 mm | - | 80 W/m² | - |
| 1777753568 | 12.22° C | 99% | 1012.2 hPa | 0 mm | - | 84 W/m² | - |
| 1777753266 | 12.22° C | 99% | 1012.1 hPa | 0 mm | - | 95 W/m² | - |
| 1777752962 | 12.22° C | 99% | 1012.1 hPa | 0 mm | - | 89 W/m² | - |
| 1777752659 | 12.22° C | 99% | 1012 hPa | 0 mm | - | 90 W/m² | - |
| 1777752354 | 12.22° C | 99% | 1012.1 hPa | 0 mm | - | 98 W/m² | - |
| 1777752052 | 12.78° C | 99% | 1012.2 hPa | 0 mm | - | 92 W/m² | - |
| 1777751750 | 12.78° C | 99% | 1012.2 hPa | 0 mm | - | 87 W/m² | - |
| 1777751446 | 12.78° C | 99% | 1012 hPa | 0 mm | - | 93 W/m² | - |
| 1777751143 | 12.78° C | 99% | 1012.3 hPa | 0 mm | - | 95 W/m² | - |
| 1777750839 | 12.78° C | 99% | 1012.3 hPa | 0 mm | - | 43 W/m² | - |
| 1777750536 | 12.78° C | 99% | 1012.4 hPa | 0 mm | - | 65 W/m² | - |
| 1777750232 | 12.78° C | 99% | 1012.2 hPa | 0 mm | - | 95 W/m² | - |
| 1777749928 | 12.78° C | 99% | 1012.3 hPa | 0 mm | - | 101 W/m² | - |
| 1777749626 | 13.33° C | 99% | 1012 hPa | 1.78 mm | - | 126 W/m² | - |
| 1777749322 | 13.33° C | 99% | 1012.3 hPa | 1.78 mm | - | 249 W/m² | - |
| 1777749020 | 13.33° C | 99% | 1012.2 hPa | 0 mm | - | 188 W/m² | - |
| 1777748717 | 13.33° C | 99% | 1012.3 hPa | 0 mm | - | 135 W/m² | - |
| 1777748104 | 13.33° C | 99% | 1012.2 hPa | 3.05 mm | - | 183 W/m² | - |
| 1777747496 | 14.44° C | 99% | 1011.9 hPa | 1.78 mm | - | 35 W/m² | - |
| 1777746889 | 14.44° C | 98% | 1012 hPa | 0 mm | - | 89 W/m² | - |
| 1777746586 | 15° C | 98% | 1012 hPa | 0 mm | - | 50 W/m² | - |
| 1777746279 | 15° C | 98% | 1011.9 hPa | 0 mm | - | 72 W/m² | - |
| 1777745976 | 15.56° C | 99% | 1011.8 hPa | 0 mm | - | 244 W/m² | - |
| 1777745674 | 15.56° C | 99% | 1011.7 hPa | 0 mm | - | 269 W/m² | - |
* Rain latest hour (hover to see other rain measurements)
** Current wind speed in m/s (hover to see current wind gust speed)